#datetime,building,power
2022-07-15T00:00:00,hld,4.74
2022-07-15T00:01:00,hld,4.75
2022-07-15T00:02:00,hld,4.78
2022-07-15T00:03:00,hld,5.28
2022-07-15T00:04:00,hld,4.69
2022-07-15T00:05:00,hld,4.69
2022-07-15T00:06:00,hld,4.61
2022-07-15T00:07:00,hld,4.61
2022-07-15T00:08:00,hld,4.64
2022-07-15T00:09:00,hld,4.64
2022-07-15T00:10:00,hld,4.62
2022-07-15T00:11:00,hld,4.61
2022-07-15T00:12:00,hld,4.62
2022-07-15T00:13:00,hld,4.67
2022-07-15T00:14:00,hld,4.67
2022-07-15T00:15:00,hld,4.67
2022-07-15T00:16:00,hld,4.62
2022-07-15T00:17:00,hld,4.77
2022-07-15T00:18:00,hld,4.76
2022-07-15T00:19:00,hld,4.75
2022-07-15T00:20:00,hld,4.73
2022-07-15T00:21:00,hld,6.22
2022-07-15T00:22:00,hld,4.74
2022-07-15T00:23:00,hld,4.75
2022-07-15T00:24:00,hld,4.73
2022-07-15T00:25:00,hld,4.74
2022-07-15T00:26:00,hld,5.44
2022-07-15T00:27:00,hld,4.74
2022-07-15T00:28:00,hld,4.75
2022-07-15T00:29:00,hld,4.73
2022-07-15T00:30:00,hld,4.73
2022-07-15T00:31:00,hld,4.75
2022-07-15T00:32:00,hld,4.74
2022-07-15T00:33:00,hld,4.62
2022-07-15T00:34:00,hld,4.61
2022-07-15T00:35:00,hld,4.61
2022-07-15T00:36:00,hld,4.61
2022-07-15T00:37:00,hld,4.72
2022-07-15T00:38:00,hld,4.61
2022-07-15T00:39:00,hld,4.62
2022-07-15T00:40:00,hld,4.64
2022-07-15T00:41:00,hld,4.61
2022-07-15T00:42:00,hld,4.61
2022-07-15T00:43:00,hld,4.61
2022-07-15T00:44:00,hld,4.60
2022-07-15T00:45:00,hld,4.61
2022-07-15T00:46:00,hld,4.63
2022-07-15T00:47:00,hld,4.61
2022-07-15T00:48:00,hld,5.32
2022-07-15T00:49:00,hld,4.62
2022-07-15T00:50:00,hld,4.62
2022-07-15T00:51:00,hld,4.63
2022-07-15T00:52:00,hld,4.64
2022-07-15T00:53:00,hld,4.63
2022-07-15T00:54:00,hld,4.60
2022-07-15T00:55:00,hld,4.60
2022-07-15T00:56:00,hld,4.63
2022-07-15T00:57:00,hld,4.61
2022-07-15T00:58:00,hld,4.60
2022-07-15T00:59:00,hld,4.61
2022-07-15T01:00:00,hld,4.61
2022-07-15T01:01:00,hld,4.61
2022-07-15T01:02:00,hld,4.61
2022-07-15T01:03:00,hld,4.66
2022-07-15T01:04:00,hld,4.62
2022-07-15T01:05:00,hld,4.63
2022-07-15T01:06:00,hld,4.61
2022-07-15T01:07:00,hld,4.75
2022-07-15T01:08:00,hld,4.74
2022-07-15T01:09:00,hld,4.73
2022-07-15T01:10:00,hld,6.22
2022-07-15T01:11:00,hld,4.79
2022-07-15T01:12:00,hld,5.13
2022-07-15T01:13:00,hld,4.76
2022-07-15T01:14:00,hld,4.75
2022-07-15T01:15:00,hld,4.75
2022-07-15T01:16:00,hld,4.75
2022-07-15T01:17:00,hld,4.73
2022-07-15T01:18:00,hld,4.73
2022-07-15T01:19:00,hld,4.76
2022-07-15T01:20:00,hld,4.72
2022-07-15T01:21:00,hld,4.73
2022-07-15T01:22:00,hld,4.74
2022-07-15T01:23:00,hld,4.75
2022-07-15T01:24:00,hld,4.62
2022-07-15T01:25:00,hld,4.64
2022-07-15T01:26:00,hld,4.62
2022-07-15T01:27:00,hld,4.62
2022-07-15T01:28:00,hld,4.62
2022-07-15T01:29:00,hld,4.62
2022-07-15T01:30:00,hld,4.63
2022-07-15T01:31:00,hld,4.61
2022-07-15T01:32:00,hld,4.63
2022-07-15T01:33:00,hld,4.60
2022-07-15T01:34:00,hld,4.63
2022-07-15T01:35:00,hld,4.62
2022-07-15T01:36:00,hld,4.61
2022-07-15T01:37:00,hld,4.62
2022-07-15T01:38:00,hld,4.63
2022-07-15T01:39:00,hld,4.79
2022-07-15T01:40:00,hld,4.76
2022-07-15T01:41:00,hld,4.74
2022-07-15T01:42:00,hld,4.75
2022-07-15T01:43:00,hld,4.76
2022-07-15T01:44:00,hld,4.77
2022-07-15T01:45:00,hld,4.74
2022-07-15T01:46:00,hld,4.75
2022-07-15T01:47:00,hld,4.75
2022-07-15T01:48:00,hld,4.62
2022-07-15T01:49:00,hld,4.62
2022-07-15T01:50:00,hld,4.62
2022-07-15T01:51:00,hld,4.62
2022-07-15T01:52:00,hld,4.66
2022-07-15T01:53:00,hld,4.64
2022-07-15T01:54:00,hld,4.62
2022-07-15T01:55:00,hld,4.62
2022-07-15T01:56:00,hld,4.64
2022-07-15T01:57:00,hld,4.65
2022-07-15T01:58:00,hld,4.64
2022-07-15T01:59:00,hld,4.63
2022-07-15T02:00:00,hld,4.61
2022-07-15T02:01:00,hld,4.63
2022-07-15T02:02:00,hld,4.63
2022-07-15T02:03:00,hld,4.63
2022-07-15T02:04:00,hld,4.64
2022-07-15T02:05:00,hld,4.63
2022-07-15T02:06:00,hld,4.62
2022-07-15T02:07:00,hld,4.62
2022-07-15T02:08:00,hld,4.64
2022-07-15T02:09:00,hld,4.62
2022-07-15T02:10:00,hld,4.67
2022-07-15T02:11:00,hld,4.69
2022-07-15T02:12:00,hld,13.21
2022-07-15T02:13:00,hld,13.49
2022-07-15T02:14:00,hld,12.89
2022-07-15T02:15:00,hld,12.74
2022-07-15T02:16:00,hld,12.78
2022-07-15T02:17:00,hld,4.78
2022-07-15T02:18:00,hld,4.77
2022-07-15T02:19:00,hld,4.75
2022-07-15T02:20:00,hld,4.75
2022-07-15T02:21:00,hld,4.77
2022-07-15T02:22:00,hld,5.42
2022-07-15T02:23:00,hld,4.75
2022-07-15T02:24:00,hld,6.22
2022-07-15T02:25:00,hld,4.74
2022-07-15T02:26:00,hld,4.76
2022-07-15T02:27:00,hld,4.76
2022-07-15T02:28:00,hld,4.75
2022-07-15T02:29:00,hld,4.75
2022-07-15T02:30:00,hld,4.76
2022-07-15T02:31:00,hld,4.75
2022-07-15T02:32:00,hld,4.78
2022-07-15T02:33:00,hld,4.75
2022-07-15T02:34:00,hld,4.62
2022-07-15T02:35:00,hld,4.62
2022-07-15T02:36:00,hld,4.62
2022-07-15T02:37:00,hld,4.62
2022-07-15T02:38:00,hld,4.62
2022-07-15T02:39:00,hld,4.63
2022-07-15T02:40:00,hld,4.64
2022-07-15T02:41:00,hld,4.62
2022-07-15T02:42:00,hld,4.67
2022-07-15T02:43:00,hld,4.62
2022-07-15T02:44:00,hld,4.61
2022-07-15T02:45:00,hld,4.61
2022-07-15T02:46:00,hld,4.62
2022-07-15T02:47:00,hld,4.62
2022-07-15T02:48:00,hld,4.61
2022-07-15T02:49:00,hld,4.62
2022-07-15T02:50:00,hld,4.61
2022-07-15T02:51:00,hld,4.63
2022-07-15T02:52:00,hld,4.67
2022-07-15T02:53:00,hld,4.63
2022-07-15T02:54:00,hld,4.62
2022-07-15T02:55:00,hld,4.62
2022-07-15T02:56:00,hld,4.62
2022-07-15T02:57:00,hld,4.62
2022-07-15T02:58:00,hld,4.62
2022-07-15T02:59:00,hld,4.62
2022-07-15T03:00:00,hld,4.67
2022-07-15T03:01:00,hld,5.38
2022-07-15T03:02:00,hld,4.67
2022-07-15T03:03:00,hld,4.64
2022-07-15T03:04:00,hld,4.70
2022-07-15T03:05:00,hld,4.63
2022-07-15T03:06:00,hld,5.27
2022-07-15T03:07:00,hld,4.61
2022-07-15T03:08:00,hld,4.78
2022-07-15T03:09:00,hld,5.47
2022-07-15T03:10:00,hld,4.79
2022-07-15T03:11:00,hld,4.77
2022-07-15T03:12:00,hld,4.80
2022-07-15T03:13:00,hld,5.26
2022-07-15T03:14:00,hld,4.74
2022-07-15T03:15:00,hld,5.37
2022-07-15T03:16:00,hld,4.74
2022-07-15T03:17:00,hld,4.63
2022-07-15T03:18:00,hld,4.62
2022-07-15T03:19:00,hld,4.61
2022-07-15T03:20:00,hld,4.63
2022-07-15T03:21:00,hld,4.64
2022-07-15T03:22:00,hld,4.65
2022-07-15T03:23:00,hld,4.64
2022-07-15T03:24:00,hld,4.65
2022-07-15T03:25:00,hld,4.65
2022-07-15T03:26:00,hld,4.68
2022-07-15T03:27:00,hld,4.79
2022-07-15T03:28:00,hld,4.74
2022-07-15T03:29:00,hld,4.76
2022-07-15T03:30:00,hld,4.76
2022-07-15T03:31:00,hld,4.74
2022-07-15T03:32:00,hld,4.75
2022-07-15T03:33:00,hld,4.73
2022-07-15T03:34:00,hld,4.75
2022-07-15T03:35:00,hld,4.75
2022-07-15T03:36:00,hld,4.75
2022-07-15T03:37:00,hld,4.77
2022-07-15T03:38:00,hld,4.75
2022-07-15T03:39:00,hld,4.79
2022-07-15T03:40:00,hld,4.75
2022-07-15T03:41:00,hld,4.65
2022-07-15T03:42:00,hld,4.64
2022-07-15T03:43:00,hld,4.65
2022-07-15T03:44:00,hld,4.65
2022-07-15T03:45:00,hld,4.67
2022-07-15T03:46:00,hld,4.63
2022-07-15T03:47:00,hld,4.62
2022-07-15T03:48:00,hld,4.62
2022-07-15T03:49:00,hld,4.63
2022-07-15T03:50:00,hld,4.62
2022-07-15T03:51:00,hld,4.62
2022-07-15T03:52:00,hld,4.61
2022-07-15T03:53:00,hld,4.62
2022-07-15T03:54:00,hld,8.72
2022-07-15T03:55:00,hld,8.71
2022-07-15T03:56:00,hld,8.72
2022-07-15T03:57:00,hld,8.88
2022-07-15T03:58:00,hld,8.74
2022-07-15T03:59:00,hld,8.76
2022-07-15T04:00:00,hld,8.72
2022-07-15T04:01:00,hld,4.63
2022-07-15T04:02:00,hld,4.61
2022-07-15T04:03:00,hld,4.60
2022-07-15T04:04:00,hld,4.65
2022-07-15T04:05:00,hld,4.61
2022-07-15T04:06:00,hld,4.63
2022-07-15T04:07:00,hld,4.65
2022-07-15T04:08:00,hld,4.62
2022-07-15T04:09:00,hld,4.62
2022-07-15T04:10:00,hld,4.58
2022-07-15T04:11:00,hld,4.58
2022-07-15T04:12:00,hld,4.67
2022-07-15T04:13:00,hld,4.65
2022-07-15T04:14:00,hld,4.62
2022-07-15T04:15:00,hld,5.28
2022-07-15T04:16:00,hld,4.77
2022-07-15T04:17:00,hld,4.76
2022-07-15T04:18:00,hld,4.71
2022-07-15T04:19:00,hld,4.76
2022-07-15T04:20:00,hld,4.74
2022-07-15T04:21:00,hld,4.75
2022-07-15T04:22:00,hld,5.42
2022-07-15T04:23:00,hld,4.76
2022-07-15T04:24:00,hld,4.75
2022-07-15T04:25:00,hld,4.79
2022-07-15T04:26:00,hld,4.79
2022-07-15T04:27:00,hld,4.75
2022-07-15T04:28:00,hld,4.75
2022-07-15T04:29:00,hld,4.78
2022-07-15T04:30:00,hld,4.78
2022-07-15T04:31:00,hld,4.78
2022-07-15T04:32:00,hld,4.68
2022-07-15T04:33:00,hld,4.67
2022-07-15T04:34:00,hld,4.66
2022-07-15T04:35:00,hld,4.62
2022-07-15T04:36:00,hld,4.63
2022-07-15T04:37:00,hld,4.64
2022-07-15T04:38:00,hld,4.64
2022-07-15T04:39:00,hld,4.60
2022-07-15T04:40:00,hld,4.62
2022-07-15T04:41:00,hld,4.63
2022-07-15T04:42:00,hld,4.63
2022-07-15T04:43:00,hld,4.78
2022-07-15T04:44:00,hld,4.76
2022-07-15T04:45:00,hld,4.77
2022-07-15T04:46:00,hld,4.76
2022-07-15T04:47:00,hld,4.75
2022-07-15T04:48:00,hld,4.74
2022-07-15T04:49:00,hld,4.73
2022-07-15T04:50:00,hld,4.76
2022-07-15T04:51:00,hld,4.62
2022-07-15T04:52:00,hld,4.64
2022-07-15T04:53:00,hld,4.59
2022-07-15T04:54:00,hld,4.63
2022-07-15T04:55:00,hld,4.63
2022-07-15T04:56:00,hld,4.61
2022-07-15T04:57:00,hld,4.62
2022-07-15T04:58:00,hld,4.61
2022-07-15T04:59:00,hld,4.63
2022-07-15T05:00:00,hld,4.62
2022-07-15T05:01:00,hld,4.63
2022-07-15T05:02:00,hld,4.61
2022-07-15T05:03:00,hld,4.63
2022-07-15T05:04:00,hld,4.65
2022-07-15T05:05:00,hld,4.68
2022-07-15T05:06:00,hld,4.62
2022-07-15T05:07:00,hld,4.61
2022-07-15T05:08:00,hld,4.62
2022-07-15T05:09:00,hld,4.62
2022-07-15T05:10:00,hld,4.60
2022-07-15T05:11:00,hld,5.27
2022-07-15T05:12:00,hld,4.61
2022-07-15T05:13:00,hld,4.62
2022-07-15T05:14:00,hld,4.62
2022-07-15T05:15:00,hld,4.61
2022-07-15T05:16:00,hld,4.63
2022-07-15T05:17:00,hld,4.60
2022-07-15T05:18:00,hld,4.63
2022-07-15T05:19:00,hld,4.72
2022-07-15T05:20:00,hld,4.62
2022-07-15T05:21:00,hld,4.61
2022-07-15T05:22:00,hld,4.62
2022-07-15T05:23:00,hld,4.62
2022-07-15T05:24:00,hld,4.63
2022-07-15T05:25:00,hld,4.40
2022-07-15T05:26:00,hld,4.42
2022-07-15T05:27:00,hld,4.54
2022-07-15T05:28:00,hld,4.52
2022-07-15T05:29:00,hld,4.54
2022-07-15T05:30:00,hld,4.55
2022-07-15T05:31:00,hld,4.53
2022-07-15T05:32:00,hld,4.54
2022-07-15T05:33:00,hld,4.51
2022-07-15T05:34:00,hld,4.53
2022-07-15T05:35:00,hld,4.52
2022-07-15T05:36:00,hld,4.49
2022-07-15T05:37:00,hld,4.49
2022-07-15T05:38:00,hld,4.49
2022-07-15T05:39:00,hld,4.52
2022-07-15T05:40:00,hld,4.53
2022-07-15T05:41:00,hld,4.51
2022-07-15T05:42:00,hld,4.52
2022-07-15T05:43:00,hld,4.49
2022-07-15T05:44:00,hld,5.22
2022-07-15T05:45:00,hld,4.43
2022-07-15T05:46:00,hld,4.39
2022-07-15T05:47:00,hld,4.37
2022-07-15T05:48:00,hld,4.39
2022-07-15T05:49:00,hld,4.36
2022-07-15T05:50:00,hld,4.37
2022-07-15T05:51:00,hld,4.40
2022-07-15T05:52:00,hld,4.41
2022-07-15T05:53:00,hld,4.37
2022-07-15T05:54:00,hld,4.39
2022-07-15T05:55:00,hld,4.40
2022-07-15T05:56:00,hld,4.39
2022-07-15T05:57:00,hld,4.40
2022-07-15T05:58:00,hld,4.41
2022-07-15T05:59:00,hld,4.44
2022-07-15T06:00:00,hld,4.41
2022-07-15T06:01:00,hld,4.58
2022-07-15T06:02:00,hld,8.68
2022-07-15T06:03:00,hld,18.36
2022-07-15T06:04:00,hld,19.97
2022-07-15T06:05:00,hld,19.80
2022-07-15T06:06:00,hld,21.26
2022-07-15T06:07:00,hld,19.60
2022-07-15T06:08:00,hld,11.60
2022-07-15T06:09:00,hld,11.57
2022-07-15T06:10:00,hld,7.48
2022-07-15T06:11:00,hld,8.14
2022-07-15T06:12:00,hld,7.55
2022-07-15T06:13:00,hld,7.53
2022-07-15T06:14:00,hld,7.53
2022-07-15T06:15:00,hld,8.16
2022-07-15T06:16:00,hld,7.52
2022-07-15T06:17:00,hld,7.53
2022-07-15T06:18:00,hld,7.49
2022-07-15T06:19:00,hld,7.67
2022-07-15T06:20:00,hld,7.66
2022-07-15T06:21:00,hld,7.87
2022-07-15T06:22:00,hld,7.64
2022-07-15T06:23:00,hld,7.63
2022-07-15T06:24:00,hld,7.63
2022-07-15T06:25:00,hld,7.66
2022-07-15T06:26:00,hld,7.67
2022-07-15T06:27:00,hld,7.65
2022-07-15T06:28:00,hld,7.54
2022-07-15T06:29:00,hld,7.51
2022-07-15T06:30:00,hld,7.52
2022-07-15T06:31:00,hld,7.52
2022-07-15T06:32:00,hld,7.56
2022-07-15T06:33:00,hld,7.57
2022-07-15T06:34:00,hld,7.56
2022-07-15T06:35:00,hld,7.55
2022-07-15T06:36:00,hld,7.54
2022-07-15T06:37:00,hld,7.54
2022-07-15T06:38:00,hld,7.53
2022-07-15T06:39:00,hld,7.52
2022-07-15T06:40:00,hld,7.69
2022-07-15T06:41:00,hld,7.66
2022-07-15T06:42:00,hld,7.65
2022-07-15T06:43:00,hld,7.67
2022-07-15T06:44:00,hld,7.65
2022-07-15T06:45:00,hld,7.64
2022-07-15T06:46:00,hld,7.67
2022-07-15T06:47:00,hld,7.62
2022-07-15T06:48:00,hld,7.61
2022-07-15T06:49:00,hld,7.63
2022-07-15T06:50:00,hld,7.64
2022-07-15T06:51:00,hld,7.65
2022-07-15T06:52:00,hld,7.61
2022-07-15T06:53:00,hld,7.61
2022-07-15T06:54:00,hld,7.61
2022-07-15T06:55:00,hld,7.54
2022-07-15T06:56:00,hld,7.45
2022-07-15T06:57:00,hld,7.48
2022-07-15T06:58:00,hld,7.50
2022-07-15T06:59:00,hld,7.50
2022-07-15T07:00:00,hld,7.52
2022-07-15T07:01:00,hld,7.49
2022-07-15T07:02:00,hld,7.49
2022-07-15T07:03:00,hld,8.05
2022-07-15T07:04:00,hld,8.09
2022-07-15T07:05:00,hld,8.12
2022-07-15T07:06:00,hld,8.13
2022-07-15T07:07:00,hld,8.48
2022-07-15T07:08:00,hld,8.58
2022-07-15T07:09:00,hld,8.65
2022-07-15T07:10:00,hld,8.63
2022-07-15T07:11:00,hld,8.64
2022-07-15T07:12:00,hld,9.12
2022-07-15T07:13:00,hld,8.69
2022-07-15T07:14:00,hld,8.61
2022-07-15T07:15:00,hld,9.64
2022-07-15T07:16:00,hld,9.61
2022-07-15T07:17:00,hld,9.60
2022-07-15T07:18:00,hld,8.53
2022-07-15T07:19:00,hld,8.93
2022-07-15T07:20:00,hld,8.62
2022-07-15T07:21:00,hld,8.60
2022-07-15T07:22:00,hld,8.60
2022-07-15T07:23:00,hld,8.62
2022-07-15T07:24:00,hld,8.59
2022-07-15T07:25:00,hld,8.62
2022-07-15T07:26:00,hld,8.62
2022-07-15T07:27:00,hld,9.15
2022-07-15T07:28:00,hld,8.65
2022-07-15T07:29:00,hld,8.63
2022-07-15T07:30:00,hld,8.62
2022-07-15T07:31:00,hld,8.78
2022-07-15T07:32:00,hld,8.79
2022-07-15T07:33:00,hld,8.77
2022-07-15T07:34:00,hld,8.76
2022-07-15T07:35:00,hld,8.76
2022-07-15T07:36:00,hld,8.63
2022-07-15T07:37:00,hld,8.63
2022-07-15T07:38:00,hld,8.66
2022-07-15T07:39:00,hld,8.67
2022-07-15T07:40:00,hld,8.66
2022-07-15T07:41:00,hld,8.54
2022-07-15T07:42:00,hld,8.49
2022-07-15T07:43:00,hld,8.48
2022-07-15T07:44:00,hld,8.46
2022-07-15T07:45:00,hld,8.49
2022-07-15T07:46:00,hld,8.44
2022-07-15T07:47:00,hld,8.42
2022-07-15T07:48:00,hld,8.43
2022-07-15T07:49:00,hld,8.43
2022-07-15T07:50:00,hld,8.42
2022-07-15T07:51:00,hld,8.76
2022-07-15T07:52:00,hld,8.09
2022-07-15T07:53:00,hld,8.06
2022-07-15T07:54:00,hld,8.02
2022-07-15T07:55:00,hld,9.16
2022-07-15T07:56:00,hld,8.67
2022-07-15T07:57:00,hld,8.65
2022-07-15T07:58:00,hld,8.63
2022-07-15T07:59:00,hld,8.62
2022-07-15T08:00:00,hld,8.67
2022-07-15T08:01:00,hld,8.67
2022-07-15T08:02:00,hld,8.68
2022-07-15T08:03:00,hld,8.67
2022-07-15T08:04:00,hld,8.56
2022-07-15T08:05:00,hld,8.56
2022-07-15T08:06:00,hld,8.54
2022-07-15T08:07:00,hld,8.54
2022-07-15T08:08:00,hld,9.40
2022-07-15T08:09:00,hld,10.92
2022-07-15T08:10:00,hld,9.52
2022-07-15T08:11:00,hld,9.47
2022-07-15T08:12:00,hld,10.63
2022-07-15T08:13:00,hld,14.74
2022-07-15T08:14:00,hld,14.89
2022-07-15T08:15:00,hld,14.57
2022-07-15T08:16:00,hld,14.45
2022-07-15T08:17:00,hld,14.50
2022-07-15T08:18:00,hld,14.55
2022-07-15T08:19:00,hld,14.56
2022-07-15T08:20:00,hld,14.72
2022-07-15T08:21:00,hld,18.52
2022-07-15T08:22:00,hld,18.50
2022-07-15T08:23:00,hld,18.50
2022-07-15T08:24:00,hld,18.51
2022-07-15T08:25:00,hld,19.11
2022-07-15T08:26:00,hld,18.48
2022-07-15T08:27:00,hld,18.50
2022-07-15T08:28:00,hld,18.47
2022-07-15T08:29:00,hld,14.48
2022-07-15T08:30:00,hld,14.45
2022-07-15T08:31:00,hld,14.43
2022-07-15T08:32:00,hld,14.43
2022-07-15T08:33:00,hld,14.44
2022-07-15T08:34:00,hld,14.46
2022-07-15T08:35:00,hld,14.83
2022-07-15T08:36:00,hld,13.55
2022-07-15T08:37:00,hld,13.51
2022-07-15T08:38:00,hld,7.54
2022-07-15T08:39:00,hld,7.57
2022-07-15T08:40:00,hld,7.56
2022-07-15T08:41:00,hld,7.68
2022-07-15T08:42:00,hld,7.67
2022-07-15T08:43:00,hld,7.97
2022-07-15T08:44:00,hld,7.66
2022-07-15T08:45:00,hld,8.26
2022-07-15T08:46:00,hld,7.68
2022-07-15T08:47:00,hld,8.09
2022-07-15T08:48:00,hld,8.86
2022-07-15T08:49:00,hld,7.65
2022-07-15T08:50:00,hld,7.66
2022-07-15T08:51:00,hld,7.68
2022-07-15T08:52:00,hld,7.67
2022-07-15T08:53:00,hld,7.63
2022-07-15T08:54:00,hld,7.66
2022-07-15T08:55:00,hld,7.66
2022-07-15T08:56:00,hld,7.63
2022-07-15T08:57:00,hld,7.64
2022-07-15T08:58:00,hld,9.13
2022-07-15T08:59:00,hld,9.70
2022-07-15T09:00:00,hld,9.76
2022-07-15T09:01:00,hld,9.77
2022-07-15T09:02:00,hld,10.18
2022-07-15T09:03:00,hld,10.14
2022-07-15T09:04:00,hld,10.14
2022-07-15T09:05:00,hld,10.61
2022-07-15T09:06:00,hld,10.71
2022-07-15T09:07:00,hld,10.75
2022-07-15T09:08:00,hld,10.75
2022-07-15T09:09:00,hld,10.75
2022-07-15T09:10:00,hld,10.77
2022-07-15T09:11:00,hld,10.73
2022-07-15T09:12:00,hld,10.72
2022-07-15T09:13:00,hld,10.74
2022-07-15T09:14:00,hld,11.25
2022-07-15T09:15:00,hld,10.74
2022-07-15T09:16:00,hld,10.75
2022-07-15T09:17:00,hld,10.68
2022-07-15T09:18:00,hld,10.57
2022-07-15T09:19:00,hld,10.57
2022-07-15T09:20:00,hld,10.29
2022-07-15T09:21:00,hld,10.40
2022-07-15T09:22:00,hld,10.29
2022-07-15T09:23:00,hld,10.26
2022-07-15T09:24:00,hld,10.27
2022-07-15T09:25:00,hld,11.83
2022-07-15T09:26:00,hld,10.94
2022-07-15T09:27:00,hld,10.82
2022-07-15T09:28:00,hld,10.75
2022-07-15T09:29:00,hld,11.22
2022-07-15T09:30:00,hld,11.24
2022-07-15T09:31:00,hld,11.25
2022-07-15T09:32:00,hld,11.27
2022-07-15T09:33:00,hld,11.25
2022-07-15T09:34:00,hld,11.24
2022-07-15T09:35:00,hld,11.13
2022-07-15T09:36:00,hld,11.84
2022-07-15T09:37:00,hld,16.29
2022-07-15T09:38:00,hld,16.32
2022-07-15T09:39:00,hld,16.18
2022-07-15T09:40:00,hld,16.14
2022-07-15T09:41:00,hld,16.21
2022-07-15T09:42:00,hld,16.21
2022-07-15T09:43:00,hld,16.17
2022-07-15T09:44:00,hld,16.17
2022-07-15T09:45:00,hld,16.17
2022-07-15T09:46:00,hld,16.23
2022-07-15T09:47:00,hld,16.24
2022-07-15T09:48:00,hld,16.21
2022-07-15T09:49:00,hld,24.87
2022-07-15T09:50:00,hld,24.68
2022-07-15T09:51:00,hld,24.53
2022-07-15T09:52:00,hld,24.41
2022-07-15T09:53:00,hld,24.40
2022-07-15T09:54:00,hld,16.33
2022-07-15T09:55:00,hld,16.37
2022-07-15T09:56:00,hld,16.40
2022-07-15T09:57:00,hld,16.45
2022-07-15T09:58:00,hld,16.47
2022-07-15T09:59:00,hld,16.43
2022-07-15T10:00:00,hld,16.58
2022-07-15T10:01:00,hld,16.52
2022-07-15T10:02:00,hld,16.59
2022-07-15T10:03:00,hld,16.59
2022-07-15T10:04:00,hld,16.61
2022-07-15T10:05:00,hld,16.59
2022-07-15T10:06:00,hld,16.68
2022-07-15T10:07:00,hld,17.12
2022-07-15T10:08:00,hld,17.42
2022-07-15T10:09:00,hld,16.66
2022-07-15T10:10:00,hld,16.63
2022-07-15T10:11:00,hld,10.57
2022-07-15T10:12:00,hld,10.81
2022-07-15T10:13:00,hld,10.83
2022-07-15T10:14:00,hld,10.85
2022-07-15T10:15:00,hld,10.88
2022-07-15T10:16:00,hld,10.84
2022-07-15T10:17:00,hld,14.87
2022-07-15T10:18:00,hld,14.85
2022-07-15T10:19:00,hld,14.89
2022-07-15T10:20:00,hld,14.88
2022-07-15T10:21:00,hld,15.08
2022-07-15T10:22:00,hld,14.91
2022-07-15T10:23:00,hld,14.93
2022-07-15T10:24:00,hld,14.93
2022-07-15T10:25:00,hld,14.91
2022-07-15T10:26:00,hld,10.64
2022-07-15T10:27:00,hld,10.87
2022-07-15T10:28:00,hld,10.76
2022-07-15T10:29:00,hld,10.77
2022-07-15T10:30:00,hld,9.49
2022-07-15T10:31:00,hld,9.43
2022-07-15T10:32:00,hld,9.53
2022-07-15T10:33:00,hld,9.49
2022-07-15T10:34:00,hld,9.22
2022-07-15T10:35:00,hld,9.28
2022-07-15T10:36:00,hld,9.12
2022-07-15T10:37:00,hld,9.18
2022-07-15T10:38:00,hld,9.11
2022-07-15T10:39:00,hld,9.06
2022-07-15T10:40:00,hld,9.04
2022-07-15T10:41:00,hld,9.05
2022-07-15T10:42:00,hld,9.08
2022-07-15T10:43:00,hld,9.28
2022-07-15T10:44:00,hld,9.21
2022-07-15T10:45:00,hld,9.25
2022-07-15T10:46:00,hld,9.20
2022-07-15T10:47:00,hld,8.30
2022-07-15T10:48:00,hld,10.17
2022-07-15T10:49:00,hld,10.19
2022-07-15T10:50:00,hld,9.41
2022-07-15T10:51:00,hld,9.29
2022-07-15T10:52:00,hld,9.33
2022-07-15T10:53:00,hld,9.25
2022-07-15T10:54:00,hld,9.31
2022-07-15T10:55:00,hld,10.47
2022-07-15T10:56:00,hld,10.60
2022-07-15T10:57:00,hld,10.53
2022-07-15T10:58:00,hld,10.59
2022-07-15T10:59:00,hld,10.46
2022-07-15T11:00:00,hld,10.43
2022-07-15T11:01:00,hld,11.90
2022-07-15T11:02:00,hld,11.03
2022-07-15T11:03:00,hld,10.45
2022-07-15T11:04:00,hld,10.47
2022-07-15T11:05:00,hld,11.46
2022-07-15T11:06:00,hld,11.33
2022-07-15T11:07:00,hld,11.30
2022-07-15T11:08:00,hld,11.29
2022-07-15T11:09:00,hld,13.22
2022-07-15T11:10:00,hld,13.41
2022-07-15T11:11:00,hld,13.15
2022-07-15T11:12:00,hld,13.11
2022-07-15T11:13:00,hld,13.15
2022-07-15T11:14:00,hld,13.16
2022-07-15T11:15:00,hld,13.12
2022-07-15T11:16:00,hld,13.17
2022-07-15T11:17:00,hld,13.16
2022-07-15T11:18:00,hld,13.08
2022-07-15T11:19:00,hld,15.81
2022-07-15T11:20:00,hld,16.04
2022-07-15T11:21:00,hld,15.80
2022-07-15T11:22:00,hld,15.30
2022-07-15T11:23:00,hld,15.32
2022-07-15T11:24:00,hld,15.38
2022-07-15T11:25:00,hld,15.36
2022-07-15T11:26:00,hld,15.34
2022-07-15T11:27:00,hld,15.38
2022-07-15T11:28:00,hld,15.40
2022-07-15T11:29:00,hld,15.35
2022-07-15T11:30:00,hld,15.38
2022-07-15T11:31:00,hld,15.36
2022-07-15T11:32:00,hld,15.36
2022-07-15T11:33:00,hld,16.26
2022-07-15T11:34:00,hld,16.31
2022-07-15T11:35:00,hld,16.36
2022-07-15T11:36:00,hld,16.34
2022-07-15T11:37:00,hld,16.36
2022-07-15T11:38:00,hld,16.37
2022-07-15T11:39:00,hld,16.38
2022-07-15T11:40:00,hld,16.36
2022-07-15T11:41:00,hld,16.34
2022-07-15T11:42:00,hld,17.16
2022-07-15T11:43:00,hld,16.83
2022-07-15T11:44:00,hld,16.92
2022-07-15T11:45:00,hld,16.88
2022-07-15T11:46:00,hld,16.87
2022-07-15T11:47:00,hld,16.81
2022-07-15T11:48:00,hld,16.82
2022-07-15T11:49:00,hld,16.82
2022-07-15T11:50:00,hld,16.83
2022-07-15T11:51:00,hld,12.74
2022-07-15T11:52:00,hld,12.72
2022-07-15T11:53:00,hld,12.43
2022-07-15T11:54:00,hld,12.40
2022-07-15T11:55:00,hld,12.38
2022-07-15T11:56:00,hld,12.37
2022-07-15T11:57:00,hld,12.36
2022-07-15T11:58:00,hld,11.85
2022-07-15T11:59:00,hld,11.87
2022-07-15T12:00:00,hld,11.88
2022-07-15T12:01:00,hld,11.65
2022-07-15T12:02:00,hld,11.67
2022-07-15T12:03:00,hld,11.67
2022-07-15T12:04:00,hld,11.68
2022-07-15T12:05:00,hld,11.66
2022-07-15T12:06:00,hld,11.65
2022-07-15T12:07:00,hld,11.59
2022-07-15T12:08:00,hld,11.63
2022-07-15T12:09:00,hld,11.58
2022-07-15T12:10:00,hld,11.51
2022-07-15T12:11:00,hld,11.54
2022-07-15T12:12:00,hld,11.53
2022-07-15T12:13:00,hld,11.51
2022-07-15T12:14:00,hld,11.03
2022-07-15T12:15:00,hld,11.04
2022-07-15T12:16:00,hld,11.05
2022-07-15T12:17:00,hld,10.63
2022-07-15T12:18:00,hld,11.10
2022-07-15T12:19:00,hld,11.15
2022-07-15T12:20:00,hld,11.14
2022-07-15T12:21:00,hld,11.74
2022-07-15T12:22:00,hld,15.92
2022-07-15T12:23:00,hld,16.05
2022-07-15T12:24:00,hld,16.11
2022-07-15T12:25:00,hld,15.61
2022-07-15T12:26:00,hld,15.62
2022-07-15T12:27:00,hld,15.69
2022-07-15T12:28:00,hld,15.71
2022-07-15T12:29:00,hld,15.67
2022-07-15T12:30:00,hld,15.66
2022-07-15T12:31:00,hld,11.58
2022-07-15T12:32:00,hld,11.58
2022-07-15T12:33:00,hld,11.57
2022-07-15T12:34:00,hld,11.55
2022-07-15T12:35:00,hld,11.59
2022-07-15T12:36:00,hld,11.58
2022-07-15T12:37:00,hld,11.53
2022-07-15T12:38:00,hld,11.52
2022-07-15T12:39:00,hld,11.49
2022-07-15T12:40:00,hld,11.46
2022-07-15T12:41:00,hld,11.46
2022-07-15T12:42:00,hld,11.61
2022-07-15T12:43:00,hld,11.63
2022-07-15T12:44:00,hld,11.64
2022-07-15T12:45:00,hld,10.90
2022-07-15T12:46:00,hld,11.74
2022-07-15T12:47:00,hld,11.73
2022-07-15T12:48:00,hld,11.77
2022-07-15T12:49:00,hld,11.76
2022-07-15T12:50:00,hld,11.75
2022-07-15T12:51:00,hld,11.79
2022-07-15T12:52:00,hld,11.76
2022-07-15T12:53:00,hld,11.74
2022-07-15T12:54:00,hld,11.66
2022-07-15T12:55:00,hld,11.60
2022-07-15T12:56:00,hld,12.01
2022-07-15T12:57:00,hld,12.42
2022-07-15T12:58:00,hld,12.46
2022-07-15T12:59:00,hld,12.57
2022-07-15T13:00:00,hld,15.82
2022-07-15T13:01:00,hld,15.79
2022-07-15T13:02:00,hld,15.82
2022-07-15T13:03:00,hld,15.94
2022-07-15T13:04:00,hld,17.67
2022-07-15T13:05:00,hld,17.83
2022-07-15T13:06:00,hld,17.77
2022-07-15T13:07:00,hld,16.24
2022-07-15T13:08:00,hld,16.25
2022-07-15T13:09:00,hld,16.29
2022-07-15T13:10:00,hld,16.26
2022-07-15T13:11:00,hld,16.25
2022-07-15T13:12:00,hld,16.26
2022-07-15T13:13:00,hld,16.23
2022-07-15T13:14:00,hld,16.23
2022-07-15T13:15:00,hld,16.28
2022-07-15T13:16:00,hld,16.39
2022-07-15T13:17:00,hld,16.65
2022-07-15T13:18:00,hld,16.63
2022-07-15T13:19:00,hld,16.63
2022-07-15T13:20:00,hld,16.89
2022-07-15T13:21:00,hld,16.58
2022-07-15T13:22:00,hld,16.60
2022-07-15T13:23:00,hld,16.98
2022-07-15T13:24:00,hld,16.59
2022-07-15T13:25:00,hld,16.58
2022-07-15T13:26:00,hld,16.42
2022-07-15T13:27:00,hld,16.38
2022-07-15T13:28:00,hld,16.38
2022-07-15T13:29:00,hld,16.40
2022-07-15T13:30:00,hld,16.31
2022-07-15T13:31:00,hld,16.35
2022-07-15T13:32:00,hld,16.31
2022-07-15T13:33:00,hld,16.30
2022-07-15T13:34:00,hld,16.30
2022-07-15T13:35:00,hld,12.05